{"data":{"norad_id":67190,"epoch":"2026-09-20T10:01:00.336000Z","epoch_age_seconds":85573,"freshness":"FRESH","line1":"1 67190U 25303AD  26263.41736500  .00016134  00000+0  59425-3 0  9993","line2":"2 67190  43.0030 291.2163 0001604 269.4212  90.6455 15.27596937 42511","mean_motion":15.27596937,"eccentricity":0.0001604,"inclination_deg":43.003,"raan_deg":291.2163,"arg_perigee_deg":269.4212,"mean_anomaly_deg":90.6455,"bstar":0.00059425,"rev_number":4251,"period_min":94.265703545333,"perigee_km":481.89785492206,"apogee_km":484.0989071523,"semimajor_km":6861.1353810372,"source":"CELESTRAK","updated_at":"2026-09-21T09:00:36.134645Z"}}